Regional Weather Roundup
Issued by NWS

Home | Current Version | Previous Version | Text Only | Print | Product List | Glossary On
Versions: 1 2 3 4 5 6 7 8 9 10 11 12 13 14 15 16 17 18 19 20 21 22 23 24 25 26 27 28 29 30 31 32 33 34 35 36 37 38 39 40 41 42 43 44 45 46 47 48 49 50
072
ASUS44 KLUB 231901
RWRTX
WEST TEXAS WEATHER ROUNDUP
NATIONAL WEATHER SERVICE LUBBOCK TX
100 PM CST THU FEB 23 2017

NOTE: "FAIR" INDICATES FEW OR NO CLOUDS BELOW 12,000 FEET WITH NO
SIGNIFICANT WEATHER AND/OR OBSTRUCTIONS TO VISIBILITY.

TXZ004-006>008-010-012-014-016-OKZ002-232000-
TEXAS PANHANDLE/OKLAHOMA PANHANDLE

CITY           SKY/WX    TMP DP  RH WIND       PRES   REMARKS
AMARILLO       SUNNY     75  24  15 SW31G44   29.51F
BORGER         SUNNY     76  24  14 W30G46    29.44F
CANADIAN       SUNNY     83  20  10 W38G46    29.42F
DALHART        SUNNY     73  16  11 SW33G44   29.46F
DUMAS          SUNNY     72  23  16 SW38G44   29.47F
GUYMON         SUNNY     76  21  12 SW37G48   29.36F
HEREFORD       SUNNY     75  21  13 MISG      29.54F
PAMPA          SUNNY     78  27  15 W29G40    29.47F
PERRYTON       SUNNY     79  23  12 SW31G43   29.42F
$$

TXZ026-029-035-045-048-232000-
SOUTHERN PANHANDLE/SOUTH PLAINS/ROLLING PLAINS

CITY           SKY/WX    TMP DP  RH WIND       PRES   REMARKS
CHILDRESS      SUNNY     85  30  13 W30G41    29.48F
SEMINOLE       SUNNY     78  27  15 W29G39    29.65F
LUBBOCK        MOSUNNY   80  25  13 W35G52    29.56F
PLAINVIEW      SUNNY     77  26  15 W33G43    29.55F
SNYDER         SUNNY     84  32  15 SW20G26   29.59F
$$

TXZ052-054-060>062-072-078-127-140-154-169-232000-
PERMIAN BASIN/CONCHO VALLEY/BIG COUNTRY/EDWARDS PLATEAU

CITY           SKY/WX    TMP DP  RH WIND       PRES   REMARKS
ABILENE        SUNNY     84  41  21 SW15      29.58F
BIG SPRING     SUNNY     83  26  12 SW31G38   29.64F
BROWNWOOD      SUNNY     86  37  17 SW17G23   29.59F
JUNCTION       SUNNY     88  36  15 W15G22    29.63F
MIDLAND        SUNNY     84  24  11 SW25G39   29.63F
ODESSA         SUNNY     84  24  11 W26G47    29.64F
SAN ANGELO     SUNNY     87  35  15 SW17      29.61F
SONORA         SUNNY     86  34  15 SW9       29.70F
SWEETWATER     SUNNY     86  27  11 SW20G25   29.61F
WINK             N/A     83  25  12 MISG      29.63F
$$

TXZ055-058-074-075-080-082-232000-
FAR WEST/SOUTHWEST MOUNTAINS/TRANS PECOS

CITY           SKY/WX    TMP DP  RH WIND       PRES   REMARKS
ALPINE         SUNNY     80  18  10 SW20G31   29.84F
DRYDEN           N/A     89  20   8 SW21G32   29.64F
EL PASO        MOSUNNY   70  20  15 W41G51    29.76F
FORT STOCKTON  SUNNY     87  21   9 W17G33    29.67F
GUADALUPE PASS LGT RAIN  68  25  19 W54G68    29.74F
MARFA          SUNNY     76  19  11 SW23G36   29.82F
PECOS          SUNNY     83  25  11 SW24G44   29.65F
PRESIDIO       FAIR      84  19   9 S16G23    29.76F
$$

TXZ014-016-019-021>030-083-232000
TEXAS TECH WEST TEXAS MESONET/TEXAS PANHANDLE/NORTHERN SOUTH PLAINS

CITY           SKY/WX    TMP DP  RH WIND       PRES   REMARKS
ABERNATHY 5ENE   N/A     78  27  15 SW30G39   29.57F
AMARILLO 9NNE    N/A     74  27  17 SW26      29.50F
AMARILLO 7SSE    N/A     73  27  18 SW22      29.53F
AMHERST 1NE      N/A     74  25  16 SW32      29.58F
BOOTLEG 11WNW    N/A     71  21  15 W40       29.55F
CANADIAN 6E      N/A     82  24  12 SW31      29.39F
CAPROCK CYN SP   N/A     80  24  12 SW29      29.51F
CLARENDON 2WSW   N/A     80  26  13 W29G40    29.48F
CLAUDE 12SW      N/A     74  27  17 W28G39    29.51F
DIMMITT 2NE      N/A     71  27  19 SW35G44   29.54F
FLOYDADA 2NNE    N/A     79  21  11 SW35G44   29.54F
FRIONA 2NE       N/A     72  17  12 SW35G46   29.54F
GOODLETT 3W      N/A     86  31  14 SW29      29.45F
HART 3N          N/A     73  29  20 SW30G44   29.55F
HEREFORD 2NW     N/A     72  19  13 SW32      29.53F
MEMPHIS 1NE      N/A     82  29  15 SW22      29.46F
MULESHOE 2SSW    N/A     74  21  13 SW28G38   29.57F
OLTON 6S         N/A     76  25  15 W30       29.56F
PALO DURO SP     N/A     76  27  16 SW30      29.53F
PAMPA 2E         N/A     75  28  17 SW26G43   29.47F
PLAINVIEW 1S     N/A     75  28  17 SW24G38   29.54F
TULIA 2ENE       N/A     74  31  20 SW31      29.54F
TURKEY 2WSW      N/A     82  29  14 SW29      29.48F
UMBARGER 3NNE    N/A     72  29  20 SW26      29.53F
$$

TXZ033>036-039>041-045>048-232000
TEXAS TECH WEST TEXAS MESONET/SOUTH PLAINS

CITY           SKY/WX    TMP DP  RH WIND       PRES   REMARKS
AIKEN 3WSW       N/A     78  31  18 SW28      29.56F
ANDREWS 2NE      N/A     80  24  13 W25       29.64F
ANTON 6SSW       N/A     78  25  14 SW35G45   29.58F
BROWNFIELD 2S    N/A     78  30  17 SW30G43   29.60F
DENVR CTY 7WNW   N/A     74  22  14 SW37G49   29.63F
GAIL 2ESE        N/A     84  26  12 SW24G36   29.58F
LAMESA 2SE       N/A     80  29  16 SW28G38   29.61F
LEVELLAND 4S     N/A     76  20  12 SW38G49   29.58F
LUBBOCK 3WNW     N/A     79  24  13 SW25G39   29.58F
MORTON 1ENE      N/A     75  25  15 SW31G43   29.59F
ODONNELL 1N      N/A     81  25  12 SW35G45   29.59F
PLAINS 3N        N/A     75  24  14 SW37G48   29.60F
RALLS 1SE        N/A     78  29  16 W35       29.57F
REESE CENTER     N/A     77  22  13 SW35      29.58F
SEAGRAVES 1SW    N/A     79  25  13 W32G43    29.62F
SEMINOLE 2NNE    N/A     78  24  13 SW24G37   29.63F
SLATON 2NE       N/A     80  27  14 W31G41    29.57F
SNYDER 3E        N/A     84  28  13 SW20G29   29.58F
SUNDOWN 8SW      N/A     76  25  14 SW36G49   29.59F
TAHOKA 3NNE      N/A     80  26  13 W29       29.58F
WOLFFORTH 6SSW   N/A     80  26  13 SW33G47   29.59F
$$

TXZ031-032-036>038-042>044-232000-
TEXAS TECH WEST TEXAS MESONET/ROLLING PLAINS

CITY           SKY/WX    TMP DP  RH WIND       PRES   REMARKS
ASPERMONT 3NE    N/A     88  29  12 W22G31    29.52F
FLUVANNA 3WNW    N/A     83  25  12 SW29G38   29.57F
GUTHRIE 10WSW    N/A     87  28  12 SW30G40   29.51F
HASKELL 1NW      N/A     87  30  13 SW20      29.52F
JAYTON 1SSE      N/A     85  29  13 W24       29.53F
KNOX CITY 3NW    N/A     89  30  12 SW22G32   29.50F
LK A HENRY 1NW   N/A     84  27  12 W24       29.54F
NORTHFIELD 1S    N/A     84  31  15 W32G46    29.48F
ODELL 4ENE       N/A     83  43  24 S13       29.47F
PADUCAH 10SW     N/A     85  29  13 W30       29.49F
POST 1NE         N/A     83  27  12 SW23G38   29.56F
RRING SPRGS 3N   N/A     82  33  17 SW26G36   29.52F
SEYMOUR 3NW      N/A     82  46  27 S10       29.50F
SPUR 1W          N/A     83  27  13 SW28G39   29.54F
WEINERT 2NNE     N/A     88  38  16 SW15      29.51F
WHITE RVR 6NE    N/A     81  28  14 SW29G40   29.55F
$$

TXZ052-054-060>062-072-078-127-140-154-169-232000-
TEXAS TECH WEST TEXAS MESONET/PERMIAN BASIN/
CONCHO VALLEY/BIG COUNTRY/EDWARDS PLATEAU

CITY           SKY/WX    TMP DP  RH WIND       PRES   REMARKS
COYANOSA 2N      N/A     87  20   8 W28       29.64F
JUNCTION 1SSW    N/A     88  35  15 SW12      29.64F
MERTZON 3NNE     N/A     88  30  12 W18       29.64F
SAN ANGELO 7NW   N/A     85  34  16 S13       29.62F
STRLNG CT 4WSW   N/A     85  28  12 SW18      29.63F
ST LAWRNCE 5SW   N/A     84  22  10 W25       29.64F
SWEETWATR 11SW   N/A     85  33  15 SW15      29.62F
WALL 1E          N/A     88  32  14 SW15      29.63F
$$

TXZ055-058-074-075-080-082-232000-
TEXAS TECH WEST TEXAS MESONET/FAR WEST/SOUTHWEST MOUNTAINS/TRANS PECOS

CITY           SKY/WX    TMP DP  RH WIND       PRES   REMARKS
PRSMN GAP BBNP   N/A     84  19   9 SW18      29.74F
GUADLPE MTN NP   N/A     63  20  19 S8        29.80F
$$




USA.gov is the U.S. government's official web portal to all federal, state and local government web resources and services.